EW6866 Weather Reports


time (UTC)temp
C
wind
direction
speed
KPH
gust
KPH
rain 1hr
cm
rain 24hr
cm
rain mn
cm
humidity
%
barometer
mb
20260905220004 28 65 0.0 4.8 0.00 0.56 0.00 78 1008.1
20260905214504 28 63 0.0 4.8 0.00 0.56 0.00 78 1008.3
20260905213026 28 62 0.0 4.8 0.00 0.56 0.00 77 1008.3
20260905211504 29 49 0.0 3.2 0.00 0.56 0.00 78 1008.2
20260905210005 30 52 0.0 1.6 0.00 0.56 0.00 78 1007.8
20260905204505 31 318 0.0 4.8 0.00 0.56 0.00 75 1007.9
20260905203004 31 326 0.0 1.6 0.00 0.56 0.00 73 1007.9
20260905201505 32 84 0.0 1.6 0.00 0.58 0.00 70 1008.1
20260905200004 32 84 0.0 1.6 0.00 0.58 0.00 66 1008.1
20260905194504 31 71 0.0 3.2 0.00 0.58 0.00 68 1008.4
20260905193026 31 65 0.0 3.2 0.00 0.58 0.00 69 1008.7
20260905191504 31 62 0.0 1.6 0.00 0.58 0.00 72 1008.8
20260905190004 31 67 0.0 6.4 0.00 0.58 0.00 70 1009.0
20260905184504 32 84 0.0 1.6 0.00 0.58 0.00 71 1009.1
20260905183005 32 73 0.0 4.8 0.00 0.58 0.00 67 1009.3
20260905181504 32 107 0.0 1.6 0.00 0.58 0.00 70 1009.4
20260905180005 32 99 0.0 1.6 0.00 0.58 0.00 69 1009.3
20260905174504 31 66 1.6 4.8 0.00 0.58 0.00 73 1009.7
20260905173025 31 66 0.0 3.2 0.00 0.58 0.00 71 1009.7
20260905171525 31 74 0.0 3.2 0.00 0.58 0.00 70 1009.9
20260905170005 31 80 0.0 1.6 0.00 0.58 0.00 73 1010.0
20260905164504 31 136 0.0 1.6 0.00 0.58 0.00 75 1010.1
20260905163004 30 77 0.0 3.2 0.00 0.58 0.00 75 1010.2
20260905161504 30 71 0.0 3.2 0.00 0.58 0.00 74 1010.5
20260905160004 30 75 0.0 3.2 0.00 0.58 0.00 73 1010.7
20260905154504 30 88 0.0 1.6 0.00 0.58 0.00 75 1010.8
20260905153025 29 74 0.0 1.6 0.00 0.58 0.00 78 1010.8
20260905151504 28 152 0.0 4.8 0.00 0.58 0.00 81 1010.9
20260905150004 28 96 0.0 1.6 0.00 0.58 0.00 82 1010.7
20260905144504 27 118 0.0 3.2 0.00 0.58 0.00 84 1010.6
20260905143004 27 147 0.0 8.0 0.00 0.58 0.00 87 1010.5
20260905141504 26 148 0.0 3.2 0.00 0.58 0.00 87 1010.5
20260905140025 26 182 0.0 4.8 0.00 0.58 0.00 89 1010.6
20260905134503 25 185 0.0 4.8 0.00 0.58 0.00 91 1010.4
20260905133004 25 137 0.0 1.6 0.00 0.58 0.00 92 1010.6
20260905131504 24 248 0.0 3.2 0.00 0.58 0.00 94 1010.7
20260905130004 23 147 0.0 1.6 0.00 0.58 0.00 96 1010.8
20260905124525 23 0 0.0 0.0 0.00 0.58 0.00 97 1010.8
20260905123005 23 145 0.0 1.6 0.00 0.58 0.00 98 1010.8
20260905121503 22 0 0.0 0.0 0.00 0.58 0.00 98 1010.9
20260905120004 22 0 0.0 0.0 0.00 0.58 0.00 98 1010.6
20260905114504 22 0 0.0 0.0 0.00 0.58 0.00 98 1010.5
20260905113004 22 0 0.0 0.0 0.00 0.58 0.00 98 1010.4
20260905111503 21 0 0.0 0.0 0.00 0.58 0.00 98 1010.2
20260905110025 21 0 0.0 0.0 0.00 0.58 0.00 98 1010.0
20260905104503 21 0 0.0 0.0 0.00 0.58 0.00 98 1009.8
20260905103025 21 0 0.0 0.0 0.00 0.58 0.00 98 1009.7
20260905101504 21 0 0.0 0.0 0.00 0.58 0.00 98 1009.6
20260905100025 21 0 0.0 0.0 0.00 0.58 0.00 98 1009.5
20260905094504 21 114 0.0 1.6 0.00 0.58 0.00 98 1009.5
20260905093003 21 0 0.0 0.0 0.00 0.58 0.00 98 1009.6
20260905091504 21 0 0.0 0.0 0.00 0.58 0.00 97 1009.7
20260905090003 21 129 0.0 1.6 0.00 0.58 0.00 97 1009.7
20260905084504 21 0 0.0 0.0 0.00 0.58 0.00 97 1009.4
20260905083025 21 172 0.0 1.6 0.00 0.58 0.00 97 1009.2
20260905081503 21 0 0.0 0.0 0.00 0.58 0.00 97 1009.2
20260905080004 21 124 0.0 1.6 0.00 0.58 0.00 97 1009.4
20260905074526 21 0 0.0 0.0 0.00 0.58 0.00 97 1009.5
20260905073005 21 107 0.0 1.6 0.00 0.58 0.00 97 1009.5
20260905071505 21 0 0.0 0.0 0.00 0.58 0.00 97 1009.3
20260905070005 21 0 0.0 0.0 0.00 0.58 0.00 97 1009.3
20260905064505 21 120 0.0 1.6 0.00 0.58 0.00 97 1009.5
20260905063005 21 0 0.0 0.0 0.00 0.58 0.00 97 1009.5
20260905061505 21 110 0.0 1.6 0.00 0.58 0.00 97 1009.7
20260905060005 22 124 0.0 1.6 0.00 0.58 0.00 97 1009.8
20260905054505 22 125 0.0 1.6 0.00 0.58 0.00 97 1010.1
20260905053005 22 116 0.0 3.2 0.00 0.58 0.00 97 1010.2
20260905051505 22 79 0.0 1.6 0.00 0.58 0.00 97 1010.6
20260905050005 22 171 0.0 1.6 0.00 0.58 0.00 97 1010.8
20260905044505 22 0 0.0 0.0 0.00 0.58 0.00 97 1010.7
20260905043005 22 115 0.0 1.6 0.00 0.58 0.00 97 1010.8
20260905041505 23 0 0.0 0.0 0.00 0.58 0.00 97 1011.0
20260905040006 23 123 0.0 3.2 0.00 0.58 0.00 97 1011.2
20260905034525 23 148 0.0 8.0 0.00 0.58 0.58 97 1011.1
20260905033005 23 127 0.0 1.6 0.00 0.58 0.58 97 1011.0
20260905031526 23 0 0.0 0.0 0.00 0.58 0.58 97 1010.4
20260905030005 23 0 0.0 0.0 0.03 0.58 0.58 97 1009.9
20260905024505 23 0 0.0 0.0 0.08 0.58 0.58 97 1010.5
20260905023004 22 0 0.0 0.0 0.18 0.58 0.58 96 1011.4
20260905021505 23 289 0.0 4.8 0.23 0.58 0.58 96 1011.9
20260905020004 23 298 0.0 6.4 0.23 0.56 0.56 96 1012.2
20260905014505 23 142 0.0 4.8 0.20 0.51 0.51 95 1014.1
20260905013026 23 115 0.0 11.3 0.15 0.41 0.43 95 1014.4
20260905011526 23 118 0.0 4.8 0.13 0.36 0.36 94 1014.0
20260905010005 23 108 1.6 8.0 0.15 0.33 0.33 94 1013.8
20260905004504 23 110 0.0 9.7 0.25 0.30 0.30 94 1014.0
20260905003005 23 144 0.0 1.6 0.23 0.25 0.25 92 1013.1
20260905001525 24 129 0.0 3.2 0.20 0.23 0.23 91 1012.4
20260905000005 25 123 1.6 11.3 0.13 0.15 0.15 88 1013.0
20260904234505 26 127 0.0 9.7 0.03 0.05 0.05 86 1013.2
20260904233025 27 260 0.0 1.6 0.00 0.03 0.03 87 1012.6
20260904231504 27 287 0.0 1.6 0.00 0.03 0.03 87 1011.7
20260904230005 26 272 0.0 4.8 0.00 0.03 0.03 86 1012.0
20260904224505 26 272 0.0 3.2 0.00 0.03 0.03 84 1012.2
20260904223005 26 0 0.0 0.0 0.00 0.03 0.03 83 1011.5
20260904221505 26 134 0.0 1.6 0.00 0.03 0.03 84 1011.5